This is the latest recevied weather packets stored in our database for station/object W4ZHA. If no packets are shown the sender has not sent any weather packets the latest 10 day(s).
| Time | Temp. | Humidity | Pressure | Rain* | Wind** | Luminosity | Snow |
|---|---|---|---|---|---|---|---|
| 1777939604 | 23.33° C | 51% | 1012.7 hPa | 0 mm | - | 11 W/m² | - |
| 1777939303 | 23.33° C | 51% | 1012.7 hPa | 0 mm | - | 14 W/m² | - |
| 1777938998 | 23.33° C | 50% | 1012.7 hPa | 0 mm | - | 19 W/m² | - |
| 1777938695 | 23.33° C | 50% | 1012.7 hPa | 0 mm | - | 21 W/m² | - |
| 1777938392 | 23.89° C | 50% | 1012.7 hPa | 0 mm | - | 25 W/m² | - |
| 1777938090 | 23.89° C | 49% | 1012.7 hPa | 0 mm | - | 27 W/m² | - |
| 1777937785 | 23.33° C | 49% | 1013 hPa | 0 mm | - | 30 W/m² | - |
| 1777937481 | 23.89° C | 49% | 1012.7 hPa | 0 mm | - | 33 W/m² | - |
| 1777937180 | 23.89° C | 48% | 1012.7 hPa | 0 mm | - | 34 W/m² | - |
| 1777936876 | 23.89° C | 47% | 1013 hPa | 0 mm | - | 36 W/m² | - |
| 1777936573 | 23.89° C | 46% | 1012.7 hPa | 0 mm | - | 39 W/m² | - |
| 1777936269 | 24.44° C | 46% | 1012.7 hPa | 0 mm | - | 43 W/m² | - |
| 1777935965 | 24.44° C | 46% | 1012.7 hPa | 0 mm | - | 47 W/m² | - |
| 1777935664 | 24.44° C | 46% | 1012.7 hPa | 0 mm | - | 51 W/m² | - |
| 1777935361 | 24.44° C | 46% | 1012.7 hPa | 0 mm | - | 69 W/m² | - |
| 1777935058 | 24.44° C | 46% | 1012.7 hPa | 0 mm | - | 63 W/m² | - |
| 1777934755 | 25° C | 45% | 1012.7 hPa | 0 mm | - | 69 W/m² | - |
| 1777934452 | 25° C | 45% | 1012.7 hPa | 0 mm | - | 293 W/m² | - |
| 1777934149 | 25° C | 45% | 1013 hPa | 0 mm | - | 321 W/m² | - |
| 1777933844 | 25.56° C | 45% | 1012.7 hPa | 0 mm | - | 286 W/m² | - |
| 1777933542 | 25° C | 45% | 1012.7 hPa | 0 mm | - | 273 W/m² | - |
| 1777933239 | 25.56° C | 45% | 1013 hPa | 0 mm | - | 299 W/m² | - |
| 1777932936 | 25.56° C | 45% | 1012.7 hPa | 0 mm | - | 365 W/m² | - |
| 1777932632 | 25° C | 46% | 1012.7 hPa | 0 mm | - | 94 W/m² | - |
| 1777932329 | 25° C | 45% | 1012.7 hPa | 0 mm | - | 91 W/m² | - |
* Rain latest hour (hover to see other rain measurements)
** Current wind speed in m/s (hover to see current wind gust speed)